N1RF KMYF-KLAX

Flight info

Callsign N1RF
Flight time 0h 22m
Altitude 10000
Route KMYF OCN V23 SLI KLAX
Aircraft C700/M-GPS/S

Departure

Time 2026-04-22 04:36
Airport Montgomery-Gibbs Executive Airport (KMYF)

Arrival

Time 2026-04-22 04:59
Airport Los Angeles International Airport (KLAX)
Time Latitude Longitude Altitude Speed Heading
2026-04-22 04:14 32.81382 -117.14069 423 ft 0 kts 23°
2026-04-22 04:27 32.81383 -117.14068 423 ft 3 kts 23°
2026-04-22 04:27 32.81413 -117.14047 422 ft 0 kts 40°
2026-04-22 04:28 32.81400 -117.13994 419 ft 13 kts 109°
2026-04-22 04:28 32.81347 -117.13854 419 ft 22 kts 116°
2026-04-22 04:28 32.81276 -117.13674 418 ft 25 kts 115°
2026-04-22 04:28 32.81199 -117.13478 419 ft 27 kts 117°
2026-04-22 04:29 32.81120 -117.13307 421 ft 12 kts 117°
2026-04-22 04:29 32.81154 -117.13200 422 ft 23 kts 58°
2026-04-22 04:29 32.81190 -117.13156 424 ft 0 kts 24°
2026-04-22 04:35 32.81197 -117.13153 419 ft 7 kts 24°
2026-04-22 04:35 32.81276 -117.13120 426 ft 8 kts 343°
2026-04-22 04:35 32.81291 -117.13140 423 ft 7 kts 295°
2026-04-22 04:35 32.81463 -117.13568 415 ft 106 kts 295°
2026-04-22 04:36 32.81875 -117.14630 746 ft 162 kts 295°
2026-04-22 04:36 32.82202 -117.16028 1772 ft 188 kts 276°
2026-04-22 04:36 32.82369 -117.17638 3060 ft 201 kts 280°
2026-04-22 04:36 32.82675 -117.19306 4367 ft 224 kts 282°
2026-04-22 04:37 32.82994 -117.21368 4401 ft 259 kts 278°
2026-04-22 04:37 32.83278 -117.23358 4421 ft 229 kts 280°
2026-04-22 04:37 32.83578 -117.25143 4413 ft 225 kts 281°
2026-04-22 04:37 32.83952 -117.27075 4894 ft 255 kts 289°
2026-04-22 04:38 32.84828 -117.28955 5431 ft 263 kts 302°
2026-04-22 04:38 32.85876 -117.30767 6419 ft 266 kts 302°
2026-04-22 04:38 32.86877 -117.32627 7774 ft 268 kts 297°
2026-04-22 04:38 32.87780 -117.34552 9314 ft 273 kts 295°
2026-04-22 04:39 32.88758 -117.36633 10000 ft 299 kts 296°
2026-04-22 04:39 32.89829 -117.38814 10015 ft 319 kts 297°
2026-04-22 04:39 32.90969 -117.41125 10018 ft 325 kts 297°
2026-04-22 04:39 32.92156 -117.43580 10010 ft 357 kts 297°
2026-04-22 04:40 32.93420 -117.46194 10011 ft 364 kts 297°
2026-04-22 04:40 32.94699 -117.48818 10007 ft 368 kts 297°
2026-04-22 04:40 32.95986 -117.51470 10008 ft 369 kts 297°
2026-04-22 04:40 32.97251 -117.54085 10007 ft 368 kts 297°
2026-04-22 04:41 32.98532 -117.56734 10003 ft 369 kts 297°
2026-04-22 04:41 32.99817 -117.59389 10005 ft 370 kts 297°
2026-04-22 04:41 33.01103 -117.62053 9998 ft 370 kts 297°
2026-04-22 04:41 33.02388 -117.64711 10002 ft 369 kts 297°
2026-04-22 04:42 33.03671 -117.67373 9998 ft 369 kts 297°
2026-04-22 04:42 33.04937 -117.69996 10002 ft 369 kts 297°
2026-04-22 04:42 33.06367 -117.72595 9995 ft 373 kts 306°
2026-04-22 04:42 33.08174 -117.74792 9984 ft 377 kts 316°
2026-04-22 04:43 33.10185 -117.76806 9995 ft 378 kts 317°
2026-04-22 04:43 33.12181 -117.78843 9996 ft 377 kts 316°
2026-04-22 04:43 33.14167 -117.80879 9995 ft 376 kts 316°
2026-04-22 04:43 33.16158 -117.82901 9994 ft 376 kts 316°
2026-04-22 04:44 33.18231 -117.84835 9986 ft 380 kts 324°
2026-04-22 04:44 33.20614 -117.86262 9982 ft 384 kts 335°
2026-04-22 04:44 33.23186 -117.87144 9983 ft 386 kts 346°
2026-04-22 04:44 33.25793 -117.87763 9979 ft 386 kts 346°
2026-04-22 04:45 33.28421 -117.88441 9982 ft 387 kts 346°
2026-04-22 04:45 33.31058 -117.89107 9985 ft 388 kts 346°
2026-04-22 04:45 33.33705 -117.89752 9986 ft 388 kts 346°
2026-04-22 04:45 33.36355 -117.90411 9988 ft 388 kts 346°
2026-04-22 04:46 33.38996 -117.91117 9985 ft 386 kts 342°
2026-04-22 04:46 33.41562 -117.92073 9982 ft 385 kts 340°
2026-04-22 04:46 33.44095 -117.93018 9981 ft 387 kts 341°
2026-04-22 04:46 33.46689 -117.93936 9980 ft 388 kts 341°
2026-04-22 04:47 33.49272 -117.94862 9979 ft 387 kts 341°
2026-04-22 04:47 33.51847 -117.95810 9982 ft 386 kts 340°
2026-04-22 04:47 33.54416 -117.96749 9977 ft 387 kts 341°
2026-04-22 04:47 33.56970 -117.97675 9972 ft 387 kts 341°
2026-04-22 04:48 33.59554 -117.98615 9973 ft 388 kts 341°
2026-04-22 04:48 33.61952 -117.99481 9962 ft 320 kts 341°
2026-04-22 04:48 33.63917 -118.00187 9267 ft 281 kts 340°
2026-04-22 04:48 33.65719 -118.00860 8663 ft 258 kts 340°
2026-04-22 04:49 33.67478 -118.01510 8656 ft 276 kts 340°
2026-04-22 04:49 33.69409 -118.02221 8655 ft 303 kts 340°
2026-04-22 04:49 33.71456 -118.02962 8618 ft 306 kts 341°
2026-04-22 04:49 33.73496 -118.03704 7883 ft 309 kts 341°
2026-04-22 04:50 33.75448 -118.04416 7427 ft 275 kts 341°
2026-04-22 04:50 33.77085 -118.05267 6986 ft 243 kts 325°
2026-04-22 04:50 33.78373 -118.06449 6952 ft 239 kts 314°
2026-04-22 04:50 33.79478 -118.08058 6961 ft 261 kts 300°
2026-04-22 04:51 33.80550 -118.09926 6952 ft 280 kts 313°
2026-04-22 04:51 33.82247 -118.11071 6856 ft 281 kts 343°
2026-04-22 04:51 33.84192 -118.11278 6621 ft 277 kts 359°
2026-04-22 04:51 33.86029 -118.11228 6361 ft 252 kts
2026-04-22 04:52 33.87739 -118.11151 5969 ft 248 kts
2026-04-22 04:52 33.89449 -118.11061 5590 ft 239 kts
2026-04-22 04:52 33.91104 -118.10968 5208 ft 238 kts
2026-04-22 04:52 33.92744 -118.10871 4822 ft 233 kts
2026-04-22 04:53 33.94305 -118.11150 4407 ft 225 kts 333°
2026-04-22 04:53 33.95576 -118.12152 4039 ft 214 kts 322°
2026-04-22 04:53 33.96776 -118.13251 3650 ft 222 kts 317°
2026-04-22 04:53 33.97523 -118.14778 3576 ft 209 kts 281°
2026-04-22 04:54 33.97251 -118.16420 3178 ft 225 kts 215°
2026-04-22 04:54 33.95819 -118.17290 2671 ft 228 kts 207°
2026-04-22 04:54 33.94719 -118.18467 2773 ft 199 kts 249°
2026-04-22 04:54 33.94675 -118.20220 2522 ft 224 kts 277°
2026-04-22 04:55 33.94922 -118.22010 2246 ft 214 kts 279°
2026-04-22 04:55 33.95006 -118.23768 2025 ft 204 kts 268°
2026-04-22 04:55 33.94948 -118.25413 1903 ft 179 kts 267°
2026-04-22 04:55 33.94830 -118.26764 1717 ft 148 kts 262°
2026-04-22 04:56 33.94705 -118.27927 1517 ft 141 kts 264°
2026-04-22 04:56 33.94602 -118.29103 1395 ft 140 kts 264°
2026-04-22 04:56 33.94507 -118.30259 1277 ft 136 kts 264°
2026-04-22 04:56 33.94427 -118.31322 1223 ft 126 kts 265°
2026-04-22 04:57 33.94325 -118.32404 1021 ft 131 kts 263°
2026-04-22 04:57 33.94205 -118.33476 931 ft 129 kts 262°
2026-04-22 04:57 33.94102 -118.34558 811 ft 128 kts 264°
2026-04-22 04:57 33.94044 -118.35258 684 ft 127 kts 263°
2026-04-22 04:58 33.93929 -118.36332 523 ft 128 kts 263°
2026-04-22 04:58 33.93814 -118.37393 319 ft 128 kts 264°
2026-04-22 04:58 33.93718 -118.38437 156 ft 123 kts 263°
2026-04-22 04:58 33.93622 -118.39368 118 ft 80 kts 263°
2026-04-22 04:59 33.93581 -118.39796 120 ft 48 kts 263°
2026-04-22 04:59 33.93531 -118.40092 119 ft 35 kts 250°
2026-04-22 04:59 33.93453 -118.40201 118 ft 12 kts 166°
2026-04-22 04:59 33.93445 -118.40198 118 ft 0 kts 166°
2026-04-22 05:00 33.93421 -118.40196 118 ft 14 kts 180°
2026-04-22 05:00 33.93324 -118.40204 119 ft 0 kts 179°